Wind_Speed
12 13 13 14 14 14 14 15 16 16 17 16 16 16 15 15 14 13 13 13 14 15 15 16 17 17 18 18 19 20 20 20 20 21 21 22 23 24 24 25 27 31 36 38 38 39 40 40 40 42 44 47 51 54 53 51 49 49 48 48 47 47 46 45 46 46 45 44 43 41 40 38 36 36
12 13 13 13 13 14 14 14 15 15 16 16 16 16 15 14 14 13 12 12 13 13 14 15 15 15 15 16 16 16 17 18 19 19 19 20 20 21 22 23 24 27 32 37 39 39 40 40 41 42 43 44 46 50 52 52 51 51 50 49 49 48 47 45 46 47 47 45 43 42 41 40 40 39
13 14 14 14 14 14 14 15 15 15 15 15 16 16 16 15 15 14 14 13 14 14 15 15 15 15 15 15 15 16 17 17 18 18 18 18 18 19 20 21 22 24 26 30 34 37 39 40 41 42 43 42 41 41 44 47 49 50 51 50 48 47 46 44 43 43 42 41 42 42 41 40 41 41
14 14 15 15 16 16 16 16 16 16 16 16 16 16 17 17 16 16 15 15 15 15 16 16 16 16 16 16 17 17 18 18 19 19 19 19 19 19 20 21 21 22 23 24 26 29 33 36 39 41 42 41 39 38 37 39 42 46 48 48 47 45 43 42 40 39 38 39 40 41 40 40 40 40
16 16 17 16 16 16 16 16 16 16 16 16 16 16 17 17 17 17 17 17 16 17 17 17 17 18 18 17 18 18 19 19 20 21 21 21 22 22 22 22 22 22 23 23 23 24 26 28 32 36 38 38 38 38 36 34 35 38 40 42 42 41 40 39 38 37 37 37 38 38 38 37 39 41
18 19 19 18 18 17 17 17 16 16 16 16 15 16 16 16 17 17 18 18 18 18 18 18 18 19 19 19 20 20 21 21 21 22 22 23 24 24 25 25 25 25 25 25 25 24 24 25 26 28 30 33 34 35 34 33 33 34 35 36 37 38 38 37 37 37 37 36 36 36 36 36 37 39
19 19 20 20 20 20 19 19 19 18 18 17 17 16 16 16 16 16 17 17 18 18 18 18 18 19 20 20 21 22 23 23 24 24 25 25 26 26 27 27 27 27 27 27 27 27 26 26 26 25 26 27 28 29 30 31 31 31 32 33 34 35 35 35 36 37 37 37 37 36 36 36 37 38
20 20 21 21 22 22 22 21 21 20 20 20 20 20 19 18 18 18 18 18 19 19 19 19 19 19 20 20 21 22 23 24 24 25 26 27 28 28 29 29 30 30 30 30 30 30 29 29 28 28 27 27 27 27 28 29 30 30 30 30 31 32 32 33 34 35 36 36 37 37 36 36 37 37
22 21 22 22 23 23 22 22 22 22 23 23 23 23 23 23 22 21 21 21 21 21 21 21 21 21 21 21 21 22 23 25 25 26 27 28 29 30 31 31 31 32 32 32 32 32 32 32 31 31 30 30 29 29 30 30 31 31 31 31 32 32 33 33 34 35 35 36 36 36 36 36 36 36
25 24 23 23 23 23 22 22 22 23 24 25 26 26 27 26 26 25 25 24 23 22 21 22 23 23 22 22 22 22 23 24 26 27 28 28 29 30 31 32 33 33 33 34 35 34 35 35 34 34 34 33 33 33 33 33 33 34 34 35 35 35 35 36 36 36 36 37 37 37 37 37 36 36
28 27 26 25 25 24 23 22 23 24 25 26 27 28 29 29 29 28 27 26 25 24 24 24 24 25 25 25 25 25 25 25 25 26 28 29 30 30 31 33 34 35 35 35 36 36 36 36 37 37 37 37 36 36 36 36 36 36 37 37 38 38 38 38 38 38 38 38 38 38 38 38 38 38
30 30 29 29 28 28 27 27 26 27 29 29 30 30 31 32 31 30 29 28 28 28 29 29 29 29 29 29 29 29 29 29 29 29 29 30 32 33 34 34 35 36 36 37 38 38 38 38 38 39 39 39 39 39 39 39 39 39 39 39 39 40 40 40 40 40 39 39 39 39 39 39 39 39
29 32 32 33 33 33 32 32 32 32 32 32 33 33 33 34 34 34 33 32 32 33 33 34 34 34 33 32 32 33 34 35 35 35 35 34 35 36 37 38 39 39 39 39 39 40 40 39 40 40 41 41 41 41 41 41 41 41 41 41 41 41 41 41 41 41 40 40 40 41 40 40 40 40
31 33 34 36 36 35 35 34 35 35 35 35 35 35 35 35 36 35 35 35 35 36 36 36 36 37 37 38 39 40 40 41 41 41 40 40 39 39 40 41 42 42 42 41 41 42 43 42 42 42 42 43 43 43 43 43 43 43 43 43 43 43 43 43 43 43 42 42 42 42 42 42 42 42
36 38 39 39 39 37 37 37 39 40 39 39 39 38 38 38 38 37 38 39 40 40 40 41 41 42 43 44 45 45 45 45 45 44 44 43 43 43 43 43 44 45 45 44 42 43 45 45 44 44 45 45 45 45 45 45 45 45 45 45 45 45 45 45 45 45 45 44 44 44 44 44 44 44
42 43 43 43 42 42 41 42 43 44 44 43 43 42 40 39 39 41 42 44 45 46 46 47 47 48 48 48 49 49 48 47 46 46 46 45 44 44 44 44 45 48 49 48 46 45 47 48 47 47 47 47 47 47 47 47 47 47 46 46 46 47 46 46 47 47 47 47 47 47 47 46 46 46
46 46 46 45 44 44 44 44 45 46 46 46 47 46 45 43 44 46 48 50 50 51 52 52 52 52 51 51 50 50 49 48 47 46 46 46 46 45 45 45 45 47 49 50 49 48 50 51 50 49 50 50 49 49 49 50 49 49 49 48 48 49 49 48 48 49 49 50 50 50 50 50 49 48
46 46 46 46 45 44 44 44 45 46 46 47 47 48 48 48 49 51 52 53 54 54 54 54 53 52 52 51 50 50 49 48 48 47 47 48 48 48 47 47 47 48 49 50 49 49 51 54 53 52 53 53 52 52 52 51 51 51 51 51 51 51 51 51 51 51 51 51 51 52 52 52 52 51
44 44 44 45 45 45 45 45 46 47 48 48 49 49 49 49 50 51 51 52 52 53 53 53 52 51 51 51 51 51 51 51 51 51 50 50 50 50 50 49 50 51 52 52 51 50 52 54 54 54 56 56 55 55 54 54 53 53 54 53 53 54 54 54 53 53 53 53 53 53 53 53 53 53
44 45 45 46 47 47 48 48 49 50 51 52 52 53 53 53 53 53 53 53 53 53 54 54 54 54 54 54 54 54 54 54 54 54 54 54 54 53 52 52 52 53 54 55 56 54 53 54 55 55 57 58 58 58 58 57 56 56 56 56 55 56 56 56 56 56 56 56 56 55 55 54 54 54
45 45 46 47 47 48 49 49 50 51 52 52 53 53 54 54 54 54 54 55 55 55 55 55 56 56 57 57 57 57 57 56 57 56 56 57 57 56 55 54 54 54 56 57 58 58 56 56 56 56 57 58 59 59 60 61 60 59 59 58 58 58 58 58 58 58 58 58 58 57 57 56 56 55
46 46 47 47 48 49 49 50 51 51 52 52 53 53 53 54 54 54 55 55 55 55 56 57 57 57 58 58 58 58 59 59 59 59 58 58 58 58 57 57 56 56 57 58 60 59 58 59 59 58 59 59 60 61 61 62 63 62 62 62 61 61 60 60 60 60 59 59 59 59 59 58 57 57
46 47 48 48 49 50 51 51 52 52 53 53 54 54 54 54 54 55 55 55 56 56 57 57 58 58 58 59 59 59 60 61 61 60 60 60 59 59 59 59 59 58 58 60 61 60 60 60 60 61 61 60 60 62 62 63 64 64 65 65 64 63 63 63 63 62 62 61 61 61 61 60 60 59
45 46 46 47 48 49 49 50 50 51 52 52 53 53 54 54 55 55 56 56 56 57 57 57 58 58 59 59 59 60 61 61 61 61 61 61 61 62 61 62 62 61 60 62 63 62 62 62 62 63 63 62 61 62 63 64 64 65 66 66 66 66 66 65 65 65 64 64 63 62 62 62 62 62
44 45 45 46 46 46 47 47 48 49 49 50 51 52 52 53 54 55 55 56 56 57 57 57 58 58 59 59 60 61 61 62 62 62 62 63 63 64 64 64 64 63 63 64 66 65 64 64 64 65 65 65 64 64 64 64 64 65 66 67 67 68 67 67 67 67 67 66 66 65 65 64 64 64
44 44 45 45 45 45 45 46 46 47 47 48 48 49 51 52 53 54 55 55 56 56 56 56 57 58 59 60 61 62 62 63 63 63 63 64 64 64 65 66 66 65 65 65 66 66 66 65 65 65 65 65 65 65 65 64 64 65 65 66 67 68 68 68 68 68 68 68 67 67 67 66 66 66
44 44 44 44 44 44 45 45 45 46 46 46 47 47 48 50 51 52 53 53 54 54 55 55 56 57 58 59 60 61 61 62 62 62 62 63 63 63 63 63 63 63 63 62 63 64 64 63 63 63 64 64 64 64 63 63 63 63 63 64 65 67 68 68 68 69 69 69 68 68 68 67 67 67
44 44 44 44 44 44 44 45 45 46 46 46 45 45 46 47 47 48 49 50 51 52 52 53 53 54 55 56 57 58 58 59 59 59 59 59 59 59 58 58 58 58 58 58 58 59 60 60 61 61 61 62 62 61 61 61 60 60 60 61 62 64 66 67 68 68 68 69 69 69 69 68 68 67
43 43 44 44 44 44 44 44 45 45 45 45 44 44 44 45 45 46 47 47 48 48 49 50 50 51 52 53 54 54 55 55 55 56 56 56 57 57 57 57 57 57 57 58 58 59 59 59 60 60 61 61 61 61 61 61 60 60 60 60 60 61 63 65 66 66 67 68 68 68 69 69 68 68
42 43 43 43 43 43 43 43 44 43 43 43 43 43 44 45 45 46 46 47 47 47 48 49 49 50 51 52 53 54 55 55 56 57 57 57 58 59 59 59 59 59 60 60 61 61 61 62 62 62 63 63 64 64 64 64 63 63 63 63 63 63 63 64 65 65 66 67 67 67 68 68 69 69
42 42 42 42 41 41 41 41 42 42 42 43 43 44 45 45 46 46 46 46 46 46 47 48 48 49 50 51 53 54 55 56 57 59 59 59 60 61 61 61 60 60 61 61 62 63 64 64 65 66 66 67 67 68 68 68 67 67 67 66 66 66 65 65 66 66 67 67 66 67 67 67 68 68
42 41 41 40 40 40 40 40 40 41 42 43 43 44 45 45 45 45 44 45 45 45 46 47 47 48 49 50 51 53 54 55 56 57 58 58 58 59 59 59 58 58 59 60 61 63 64 65 65 66 67 68 68 69 69 69 69 68 67 66 66 65 64 64 65 65 66 66 65 65 66 66 67 67
41 41 40 40 39 39 39 40 40 41 42 43 43 43 42 42 41 42 42 43 44 44 46 47 48 48 49 50 51 52 52 53 54 55 56 56 56 56 56 55 55 55 56 57 59 61 62 63 63 64 64 65 65 65 66 65 65 65 64 63 62 61 61 62 62 62 62 62 62 62 62 62 63 64
40 40 40 40 39 39 40 40 40 41 41 40 39 38 38 37 38 39 40 42 43 44 45 47 48 49 49 50 50 51 51 52 53 53 54 53 53 52 52 52 52 52 53 53 54 55 56 57 58 58 58 58 59 59 59 59 59 60 60 60 59 59 60 60 60 59 58 57 57 57 57 57 58 58
40 39 39 39 39 39 39 39 38 37 36 34 32 32 33 34 36 37 39 41 42 44 46 47 48 49 50 50 50 50 50 50 49 49 49 48 47 47 47 46 46 46 46 46 46 47 48 49 49 50 50 51 51 51 52 53 54 54 54 55 55 55 56 56 56 55 53 52 52 52 52 52 52 53
39 38 38 38 38 37 36 35 33 30 28 26 26 27 29 31 34 36 38 40 42 44 46 48 49 49 49 49 49 48 47 45 44 43 42 41 39 38 38 37 37 37 37 37 37 38 38 39 40 41 42 43 43 43 45 47 47 47 49 50 49 49 50 50 49 48 47 47 47 47 48 48 48 48
38 37 37 36 35 33 30 27 24 21 20 20 22 24 27 30 33 35 38 40 42 44 46 47 47 47 46 45 43 40 38 36 34 33 32 31 30 30 30 30 30 30 30 30 31 32 32 32 33 34 34 35 36 36 37 39 39 39 41 43 44 44 44 44 43 42 42 42 42 42 43 44 44 44
36 35 33 31 28 25 21 18 16 15 16 18 21 24 28 31 33 36 38 41 43 44 45 46 44 42 39 35 32 29 28 26 25 24 24 25 26 26 27 27 27 28 28 29 30 30 30 30 30 30 30 30 30 30 31 31 30 30 32 35 37 38 38 38 38 38 38 37 38 38 40 40 40 40
33 30 27 23 19 16 14 12 12 13 15 18 22 26 29 32 34 36 39 41 43 43 42 39 35 31 27 25 23 22 21 20 20 20 21 22 23 24 25 26 27 28 29 31 32 32 32 31 30 29 28 27 26 26 25 24 23 23 25 28 30 31 33 34 34 34 34 34 35 36 37 38 38 38
26 23 19 16 13 12 11 10 11 13 16 19 22 26 30 33 34 36 39 41 41 37 33 29 25 23 22 21 20 18 17 17 17 18 20 22 23 25 26 27 29 30 31 32 33 33 33 32 30 28 27 26 25 23 21 20 19 19 20 22 24 27 28 29 30 30 31 31 32 33 34 35 36 36
19 17 15 13 12 11 9 9 11 14 16 19 23 27 30 32 33 36 39 39 34 28 24 22 21 20 20 18 16 14 14 15 17 19 21 22 24 25 26 27 28 29 29 30 31 31 30 29 27 26 25 24 23 21 19 18 17 17 18 20 22 24 25 26 26 27 27 28 28 29 30 31 30 30
17 16 15 13 12 10 9 9 11 13 16 19 23 26 30 32 34 36 37 33 27 22 20 19 19 18 16 14 12 12 14 15 17 19 20 21 22 23 24 25 25 26 27 28 29 29 28 27 25 23 22 22 22 20 18 17 16 16 16 18 20 21 20 20 21 21 22 22 23 23 23 23 23 23
18 17 16 14 12 10 9 9 10 13 16 19 22 26 29 32 33 35 33 27 22 20 19 18 17 15 13 11 11 12 14 16 17 17 17 18 19 21 22 23 24 24 25 25 25 25 26 25 24 22 21 20 20 19 18 17 16 15 14 15 15 15 14 14 16 17 18 19 20 20 21 21 21 21
18 17 16 14 12 10 8 8 11 14 16 19 22 25 29 31 33 34 32 24 19 18 18 17 16 13 11 10 11 13 14 15 15 14 15 17 19 20 21 22 23 23 22 21 21 21 21 21 20 20 20 19 18 18 17 17 17 16 15 15 15 15 15 16 17 18 20 21 22 22 23 23 22 21
18 17 16 14 12 9 8 9 12 14 16 19 22 25 28 31 33 35 33 25 18 16 16 15 14 12 11 10 11 13 14 14 13 13 14 18 21 22 21 22 23 23 22 21 20 19 18 17 16 16 17 17 17 16 17 18 18 18 17 17 18 19 19 21 22 22 22 23 23 24 24 23 21 19
Wind_Direction
259 259 260 261 261 261 261 261 261 261 261 262 262 261 260 259 258 257 255 255 257 256 256 257 258 259 259 259 261 263 263 263 262 262 263 264 264 264 263 260 257 252 247 246 249 251 252 255 257 259 259 258 257 257 256 256 257 259 260 262 264 264 264 264 267 270 270 269 269 270 269 268 269 268
261 262 263 263 264 263 263 262 262 263 263 264 264 264 263 262 260 257 254 252 252 253 254 256 257 259 260 260 261 262 264 265 265 266 265 265 264 265 265 263 260 257 253 250 251 252 253 253 253 254 256 257 258 257 256 255 255 256 258 259 261 263 265 265 266 267 267 264 262 263 265 267 268 269
262 265 266 267 269 269 268 268 267 268 268 267 268 268 267 266 264 262 258 255 253 252 253 256 257 259 260 262 262 261 262 264 266 266 266 265 265 265 266 266 264 262 259 256 255 255 255 254 253 254 255 255 257 257 257 256 254 255 256 257 258 261 263 264 264 264 264 261 259 259 261 262 263 264
266 269 271 273 275 276 277 277 277 276 276 275 274 274 274 273 271 269 267 264 262 259 256 257 260 262 263 265 266 266 266 267 268 269 269 268 267 267 267 268 269 269 268 266 264 263 262 260 257 256 256 255 253 252 253 252 252 253 254 254 256 257 259 260 261 262 263 263 263 262 260 257 256 257
271 271 271 271 272 273 274 275 275 275 274 274 274 274 275 276 276 276 275 273 271 270 268 265 265 266 267 269 271 272 271 272 272 274 276 276 274 272 271 270 271 272 273 274 274 273 273 271 267 262 259 256 252 250 250 250 250 251 251 251 252 253 254 256 259 261 263 263 264 264 264 260 255 253
274 273 273 272 271 272 272 273 273 273 272 271 271 270 271 273 275 276 277 276 275 275 274 274 273 273 272 273 274 275 276 275 274 274 274 276 277 277 276 275 275 275 275 275 276 276 277 278 278 273 266 260 254 250 248 249 251 251 251 250 250 251 253 255 258 259 260 261 261 262 263 262 260 256
273 273 273 273 274 273 273 272 272 274 274 273 270 268 268 269 271 273 275 277 277 275 273 272 274 275 275 276 276 277 278 279 278 277 275 274 274 274 275 275 275 275 275 276 276 277 277 276 277 277 274 268 260 252 249 249 251 252 252 252 252 253 255 256 257 259 260 260 260 260 260 260 260 259
271 270 269 269 270 270 270 270 271 272 272 272 271 270 269 269 270 273 276 279 282 282 281 279 278 279 279 279 280 280 280 280 280 280 279 278 277 275 274 274 274 273 273 273 274 275 276 276 276 275 274 272 267 261 256 253 253 254 254 255 255 256 257 257 258 259 260 261 261 260 259 258 258 259
268 265 263 263 263 263 265 265 267 268 269 270 270 270 270 270 270 272 274 277 279 281 283 284 284 284 283 283 284 284 285 284 283 282 281 280 280 279 278 276 275 275 274 273 273 273 274 274 275 275 274 272 270 267 264 261 259 258 258 259 259 260 259 259 259 259 260 261 262 262 261 260 260 260
267 263 261 261 260 260 261 262 263 265 266 268 269 270 270 270 271 272 272 273 273 274 279 282 284 285 286 287 288 288 289 289 288 288 287 285 283 282 282 280 278 277 276 275 274 273 272 272 272 272 272 271 270 269 267 265 264 262 262 262 262 262 262 261 261 261 260 261 261 262 263 263 262 262
263 263 261 261 261 260 260 263 267 269 271 271 272 272 271 270 270 270 271 271 270 272 277 280 282 285 287 289 291 291 291 291 290 291 291 291 290 289 288 286 284 281 279 277 276 275 273 273 272 271 270 269 269 268 267 266 265 265 264 264 264 264 264 264 263 263 263 262 262 262 262 262 263 262
260 262 263 264 264 263 262 265 269 275 278 277 276 275 273 271 269 268 270 271 271 274 277 279 281 283 284 285 286 288 289 290 289 289 289 290 291 292 292 292 290 288 285 282 279 277 275 274 273 272 271 270 268 267 267 266 266 265 265 265 264 264 265 265 265 265 265 265 264 263 263 262 262 262
263 264 265 266 266 265 265 266 270 277 281 280 278 276 274 272 270 268 268 269 271 275 278 279 280 281 282 282 283 285 286 287 287 287 286 285 286 287 288 289 290 289 288 287 284 281 278 276 274 273 272 271 270 269 268 267 266 265 265 265 264 265 265 264 264 265 265 265 265 265 264 263 263 262
268 268 269 270 270 267 266 266 270 277 280 279 277 276 273 271 269 267 266 266 270 275 277 277 278 279 281 282 282 283 284 285 285 284 283 282 281 281 281 282 284 285 285 285 284 282 281 279 277 275 273 272 271 270 269 268 267 266 265 264 264 264 264 264 264 263 263 264 264 264 264 264 263 263
270 270 271 272 273 271 268 268 271 275 278 277 275 274 272 269 267 265 264 265 269 272 274 275 276 278 279 281 282 282 283 283 283 282 281 280 279 278 277 277 277 278 279 279 278 277 278 279 278 277 275 273 271 270 270 268 268 267 266 265 264 264 263 263 264 263 263 263 262 262 262 262 262 262
272 272 272 273 273 273 272 271 272 274 275 274 273 272 270 267 265 263 263 264 266 270 272 274 275 276 278 279 280 281 282 282 282 281 281 280 278 277 276 274 273 273 274 275 273 271 272 274 274 274 274 274 272 271 270 269 268 267 266 265 265 264 263 263 263 263 263 263 262 262 262 261 261 261
271 272 273 274 274 273 273 273 272 272 272 271 270 269 268 266 265 264 264 265 267 269 271 273 274 275 277 277 278 279 280 280 280 280 280 280 279 278 277 276 273 271 272 273 271 269 268 268 269 269 270 271 271 270 270 270 269 268 267 266 265 264 263 262 262 262 262 262 262 262 263 263 262 261
270 271 272 273 273 273 272 272 272 271 271 271 270 269 268 267 267 266 267 268 269 270 272 273 274 275 276 277 277 277 277 277 277 278 278 277 277 277 277 277 275 273 273 273 271 269 266 266 266 266 265 266 267 267 267 268 268 268 267 266 265 264 264 262 262 261 261 261 261 261 262 262 263 263
272 272 272 272 272 272 272 271 272 272 272 273 273 273 272 271 270 270 270 271 271 272 273 274 275 275 275 275 276 276 276 277 277 277 277 276 276 276 276 275 275 275 275 274 273 270 267 265 265 264 262 262 262 263 263 264 265 265 266 266 265 265 264 264 263 262 261 261 260 260 260 260 261 262
273 273 273 273 274 274 273 273 273 273 273 273 274 274 273 273 273 273 273 273 273 273 273 274 275 275 275 275 275 275 276 276 276 277 276 275 275 274 273 272 272 272 272 273 273 271 268 266 265 264 262 260 259 260 260 261 261 262 263 264 264 264 264 264 263 263 262 262 261 261 260 260 260 260
273 273 273 273 273 273 273 273 273 273 273 273 273 272 272 273 273 273 273 273 273 272 272 273 273 274 274 274 275 275 274 274 274 274 274 274 273 273 273 271 269 268 268 269 269 270 269 267 266 264 263 262 260 259 258 259 258 258 259 260 261 261 262 262 262 262 262 262 262 262 261 261 261 260
272 273 273 273 273 274 273 274 274 274 274 274 274 274 274 274 274 274 274 273 273 273 272 272 272 272 273 273 273 273 273 272 272 272 272 271 271 272 271 271 269 268 267 266 266 267 267 267 266 265 263 263 262 261 259 259 258 258 257 257 258 258 259 260 261 261 261 261 261 261 261 261 261 261
275 275 275 275 275 276 276 276 277 277 277 277 276 276 276 275 275 274 274 273 273 273 272 272 272 272 272 271 271 271 271 271 271 271 271 271 271 271 270 270 269 268 267 266 266 266 266 266 266 265 264 263 263 262 262 260 260 259 258 257 256 256 257 258 259 259 260 260 260 260 261 261 261 260
277 277 276 276 277 277 278 278 278 278 278 278 278 277 277 276 275 274 274 273 273 272 272 271 271 271 271 271 270 270 270 270 270 270 270 270 270 270 270 269 269 269 267 267 267 266 266 266 266 266 265 264 263 263 263 262 262 261 260 259 258 257 256 256 257 258 258 259 259 259 260 260 260 260
278 278 278 279 279 279 279 279 279 279 279 278 278 278 277 277 276 275 274 274 273 272 272 271 271 270 270 270 270 270 269 269 269 269 269 269 269 269 269 269 269 269 269 268 268 267 267 266 266 265 265 265 264 263 263 263 262 262 262 262 261 260 258 258 257 257 258 258 258 258 259 259 259 260
278 279 279 280 280 280 280 280 280 280 280 279 279 279 279 278 277 277 276 275 275 274 273 272 272 271 271 270 270 270 270 270 270 270 270 270 270 270 270 270 270 270 270 270 270 270 269 268 267 266 266 265 264 264 263 262 262 262 262 263 263 262 261 260 260 259 259 258 258 258 258 258 259 259
278 279 280 280 281 281 281 281 281 280 280 281 281 281 281 280 280 279 279 279 278 277 276 276 275 274 273 273 272 272 272 272 272 272 272 273 273 273 273 274 273 273 273 272 272 272 271 270 269 268 267 266 265 264 263 263 262 262 262 262 263 263 263 262 262 262 261 261 260 260 259 259 258 258
279 280 280 281 281 281 281 281 281 281 281 281 282 282 282 282 282 282 281 281 280 279 279 278 277 276 276 275 275 274 274 274 274 275 275 275 275 276 276 276 276 275 275 275 274 273 272 271 269 268 266 266 265 264 264 263 263 263 263 263 263 263 263 263 263 263 263 263 263 263 263 262 261 260
279 280 280 281 281 281 281 281 281 281 281 281 282 282 283 283 283 282 282 282 281 281 280 279 279 278 277 276 276 275 275 275 275 275 275 276 276 276 276 275 275 276 275 275 274 274 273 272 270 268 266 265 265 264 264 263 263 263 264 264 264 264 264 264 264 264 264 264 264 264 264 264 264 263
278 279 280 281 281 281 281 281 281 281 281 282 282 282 282 282 282 282 282 282 282 282 281 280 279 278 277 277 276 276 275 275 275 274 274 274 274 274 274 274 275 275 275 275 274 274 273 272 271 270 268 267 266 266 265 265 264 264 264 264 265 265 265 265 265 264 263 263 263 263 263 263 264 264
278 278 279 279 280 280 280 280 280 281 282 282 283 283 283 283 284 284 285 285 284 283 282 281 280 279 278 277 276 275 275 274 274 274 274 274 274 274 274 274 274 274 274 274 274 273 273 272 271 270 269 267 267 266 266 266 265 265 265 264 264 265 265 266 265 264 263 261 261 261 262 262 263 263
278 278 279 279 278 279 279 279 281 282 283 284 284 284 285 286 287 287 288 287 286 285 283 282 281 280 279 278 277 276 276 276 275 275 276 276 275 275 275 275 275 275 274 274 273 273 272 271 270 269 268 268 267 266 265 265 265 264 263 263 263 263 263 263 263 263 263 262 261 262 262 262 262 262
277 278 278 279 279 279 280 281 282 283 284 285 286 287 288 289 289 289 288 288 287 285 284 283 282 281 281 280 280 279 279 279 279 279 280 279 279 279 279 278 277 276 274 273 272 272 272 271 271 270 270 270 269 267 266 265 264 263 261 260 259 259 258 259 260 261 262 263 262 262 262 262 262 262
276 277 278 279 280 280 281 282 283 284 285 286 288 289 289 289 289 288 288 287 287 286 286 285 284 284 284 284 283 283 283 284 284 283 283 283 282 282 281 279 278 277 275 274 274 274 274 274 275 275 274 273 272 271 269 266 264 262 261 259 258 256 256 256 257 259 260 261 262 262 262 263 263 263
276 277 277 278 280 281 282 283 284 285 287 288 289 290 290 290 290 290 290 290 289 288 288 287 287 287 287 287 287 287 287 287 287 286 285 284 283 282 281 280 279 278 278 278 277 277 277 277 277 278 277 277 276 274 271 267 263 261 259 258 257 256 255 255 255 257 258 259 259 260 261 262 262 263
276 277 278 279 280 282 283 284 285 286 287 289 290 292 295 296 296 295 294 293 292 291 290 290 290 290 290 290 290 291 291 290 289 288 287 286 285 284 283 282 281 280 280 280 279 279 279 279 279 280 280 280 279 276 272 268 264 260 257 256 255 254 254 254 254 256 257 258 258 259 260 261 263 264
276 277 279 280 282 283 283 283 284 285 288 292 298 302 304 304 303 301 300 298 296 294 293 292 292 292 292 293 293 293 292 290 289 289 288 288 287 285 283 283 282 282 281 281 281 281 281 282 283 284 285 284 282 279 274 270 266 260 256 254 253 253 253 253 254 255 256 257 257 258 259 261 263 264
276 278 279 281 280 279 277 277 279 284 292 301 307 310 312 311 310 308 304 301 298 297 296 295 295 296 296 296 295 293 291 290 290 289 288 286 285 284 284 284 284 283 283 282 282 282 282 283 285 287 289 289 287 281 276 273 268 262 257 254 253 252 252 252 253 254 256 257 257 258 259 260 262 263
276 277 276 274 270 267 265 268 277 289 299 306 311 316 318 317 314 311 308 304 302 301 299 298 298 298 298 298 296 294 292 291 291 290 289 288 287 287 287 286 286 285 285 284 283 283 282 282 283 285 288 290 289 285 280 276 271 265 259 256 253 252 251 251 252 253 255 256 256 257 258 259 260 261
272 269 263 256 250 249 254 266 282 295 303 309 316 321 322 320 317 315 312 309 306 303 300 298 298 299 301 302 301 298 295 294 294 295 295 295 295 294 293 293 292 292 291 289 288 286 285 283 281 280 281 284 287 287 284 279 273 265 259 255 252 251 250 251 252 253 255 257 258 259 259 260 260 260
256 246 238 234 234 238 249 269 287 299 308 315 320 324 324 324 323 321 317 312 307 301 297 298 300 302 303 302 300 299 299 298 298 299 300 301 302 302 301 301 300 298 297 295 293 292 291 288 285 280 276 275 278 282 283 279 271 263 256 253 250 249 249 250 252 254 256 258 259 260 260 260 260 260
228 223 223 224 224 231 248 272 291 304 314 318 321 325 329 330 329 327 322 316 307 300 297 300 303 302 299 297 299 301 302 301 301 303 306 309 310 310 308 307 305 303 300 297 295 294 292 291 288 284 278 272 269 270 273 274 270 261 253 250 248 248 248 249 251 254 256 257 258 259 260 262 262 262
215 217 218 217 219 230 251 276 297 309 315 318 322 330 336 337 335 334 330 321 308 301 301 303 303 301 294 294 302 307 305 305 307 311 317 323 324 321 318 317 316 314 309 304 300 298 295 291 288 284 281 275 268 261 260 265 268 265 257 253 252 251 250 252 254 255 256 257 258 259 262 264 265 264
214 216 215 215 221 234 256 282 300 307 313 319 326 334 340 342 341 342 340 330 313 305 305 303 300 296 292 298 309 312 309 311 315 320 329 335 335 333 330 328 328 326 321 316 313 310 305 299 290 282 278 277 272 263 255 255 260 260 257 257 259 259 259 260 260 259 258 257 257 259 261 262 262 259
215 216 215 217 226 239 262 285 297 306 315 323 330 337 343 346 348 349 349 343 327 316 315 310 301 294 295 305 314 314 311 313 317 323 330 335 337 338 337 335 334 333 330 325 321 317 314 309 299 286 277 272 270 266 257 252 250 248 245 248 253 256 257 260 262 263 263 261 260 260 260 257 254 249
Height
5747 5747 5747 5747 5747 5747 5747 5747 5747 5747 5747 5746 5746 5746 5746 5746 5746 5746 5746 5746 5746 5746 5746 5746 5746 5746 5746 5746 5746 5746 5746 5747 5747 5748 5748 5748 5748 5748 5747 5747 5747 5748 5749 5750 5751 5752 5753 5754 5754 5754 5754 5755 5756 5757 5759 5761 5763 5763 5763 5764 5764 5764 5766 5768 5768 5768 5769 5769 5769 5769 5769 5770 5771 5771
5746 5746 5746 5746 5746 5746 5746 5746 5746 5745 5745 5745 5745 5744 5744 5744 5744 5744 5744 5744 5744 5744 5744 5744 5744 5744 5744 5744 5744 5744 5744 5744 5745 5745 5745 5746 5745 5745 5745 5745 5745 5745 5745 5746 5747 5748 5748 5749 5749 5749 5749 5750 5750 5751 5753 5755 5756 5757 5758 5759 5759 5759 5760 5762 5763 5763 5763 5763 5764 5764 5764 5766 5766 5766
5745 5745 5745 5745 5745 5745 5745 5745 5744 5744 5744 5744 5743 5743 5743 5743 5743 5743 5743 5743 5743 5743 5743 5743 5742 5743 5743 5743 5742 5742 5742 5742 5742 5742 5742 5743 5743 5743 5743 5743 5743 5743 5742 5742 5743 5743 5743 5744 5744 5744 5744 5745 5746 5746 5747 5748 5749 5751 5752 5753 5754 5755 5755 5756 5757 5757 5757 5757 5758 5759 5760 5762 5762 5761
5743 5743 5743 5744 5744 5743 5743 5743 5743 5743 5742 5742 5742 5741 5741 5741 5741 5741 5741 5741 5741 5741 5741 5741 5741 5741 5742 5741 5741 5741 5741 5741 5740 5740 5740 5740 5740 5740 5740 5740 5740 5740 5740 5740 5740 5739 5740 5740 5740 5740 5740 5741 5742 5742 5742 5742 5743 5744 5746 5748 5749 5750 5750 5751 5751 5752 5752 5752 5752 5753 5755 5756 5756 5756
5742 5742 5742 5742 5742 5742 5742 5741 5741 5741 5741 5741 5740 5740 5740 5739 5739 5739 5739 5739 5740 5740 5740 5740 5740 5740 5740 5740 5740 5740 5740 5739 5739 5738 5738 5738 5738 5738 5738 5738 5738 5738 5737 5737 5737 5737 5736 5736 5736 5735 5736 5736 5737 5738 5738 5738 5739 5740 5741 5743 5744 5745 5746 5746 5746 5746 5746 5747 5747 5748 5749 5750 5750 5751
5741 5741 5740 5740 5740 5740 5740 5740 5739 5739 5739 5739 5738 5738 5738 5738 5737 5737 5737 5737 5737 5738 5738 5738 5738 5738 5738 5738 5738 5738 5738 5738 5737 5737 5737 5736 5736 5735 5735 5735 5735 5735 5735 5734 5734 5734 5733 5733 5733 5732 5732 5732 5732 5733 5733 5734 5735 5736 5737 5738 5739 5740 5741 5741 5741 5741 5742 5742 5742 5743 5744 5744 5745 5746
5739 5739 5739 5738 5738 5738 5738 5737 5737 5737 5737 5737 5737 5736 5736 5736 5736 5735 5735 5735 5734 5735 5735 5736 5736 5735 5736 5736 5736 5735 5735 5735 5735 5735 5735 5735 5734 5734 5733 5733 5733 5732 5732 5732 5731 5731 5731 5730 5730 5730 5729 5729 5729 5729 5729 5730 5731 5732 5733 5734 5734 5735 5736 5736 5737 5737 5738 5738 5738 5738 5739 5740 5740 5741
5737 5737 5737 5736 5736 5736 5735 5735 5735 5735 5735 5735 5735 5734 5734 5734 5734 5733 5733 5732 5732 5732 5732 5732 5733 5733 5733 5733 5733 5732 5732 5732 5732 5732 5731 5731 5731 5731 5731 5730 5730 5730 5729 5729 5729 5728 5728 5727 5727 5727 5727 5726 5726 5726 5726 5727 5728 5729 5730 5730 5731 5731 5732 5732 5733 5733 5734 5734 5734 5734 5734 5735 5735 5736
5734 5734 5734 5733 5733 5733 5733 5733 5733 5733 5732 5732 5732 5732 5732 5732 5731 5731 5731 5730 5730 5730 5729 5729 5729 5729 5729 5729 5730 5729 5729 5728 5728 5728 5728 5728 5728 5727 5727 5727 5727 5726 5726 5726 5726 5725 5725 5724 5724 5724 5724 5724 5723 5723 5724 5724 5725 5725 5726 5726 5727 5727 5728 5728 5729 5729 5729 5729 5729 5729 5729 5730 5730 5731
5731 5731 5731 5730 5730 5730 5730 5730 5730 5730 5730 5729 5729 5729 5729 5728 5728 5728 5728 5728 5728 5727 5727 5726 5726 5726 5726 5726 5726 5726 5726 5725 5725 5724 5724 5723 5724 5724 5723 5722 5722 5723 5723 5722 5722 5722 5721 5721 5721 5720 5720 5720 5720 5720 5720 5721 5721 5721 5722 5722 5722 5723 5723 5724 5724 5724 5725 5724 5724 5724 5724 5725 5725 5726
5727 5727 5727 5727 5727 5727 5727 5727 5727 5727 5727 5727 5726 5726 5726 5725 5725 5725 5725 5725 5724 5724 5724 5723 5723 5722 5722 5722 5722 5722 5722 5722 5722 5721 5720 5719 5719 5719 5719 5718 5717 5718 5718 5718 5717 5717 5717 5717 5717 5716 5716 5716 5716 5716 5716 5717 5717 5717 5717 5718 5718 5718 5718 5719 5719 5719 5720 5720 5720 5720 5720 5720 5721 5721
5723 5723 5723 5723 5723 5723 5723 5724 5723 5723 5723 5723 5723 5723 5722 5722 5721 5721 5721 5721 5721 5720 5720 5720 5719 5719 5718 5718 5718 5718 5718 5718 5718 5718 5718 5717 5715 5714 5714 5714 5713 5713 5713 5713 5712 5712 5712 5712 5712 5712 5711 5711 5711 5712 5712 5712 5712 5712 5713 5713 5713 5713 5713 5713 5714 5714 5714 5714 5714 5714 5715 5715 5716 5716
5719 5719 5719 5718 5718 5719 5719 5719 5719 5719 5719 5719 5718 5718 5717 5717 5717 5717 5717 5717 5716 5716 5716 5715 5715 5714 5714 5714 5714 5714 5713 5713 5713 5713 5713 5713 5713 5711 5710 5709 5708 5708 5708 5708 5707 5706 5706 5707 5707 5706 5706 5706 5706 5706 5706 5706 5707 5707 5707 5707 5708 5708 5708 5708 5708 5708 5708 5708 5709 5709 5709 5710 5710 5711
5714 5714 5714 5714 5714 5714 5714 5714 5714 5714 5714 5713 5713 5713 5713 5712 5712 5712 5712 5712 5711 5711 5711 5710 5710 5709 5709 5708 5708 5708 5708 5708 5708 5707 5707 5707 5707 5707 5706 5704 5703 5702 5702 5703 5702 5701 5700 5701 5701 5701 5700 5700 5700 5701 5701 5701 5701 5701 5701 5702 5702 5702 5702 5702 5702 5703 5703 5703 5703 5703 5704 5704 5705 5705
5709 5709 5709 5709 5709 5709 5709 5709 5709 5708 5708 5708 5708 5708 5708 5707 5707 5707 5707 5706 5706 5705 5705 5705 5704 5704 5704 5703 5702 5702 5702 5701 5701 5701 5701 5701 5701 5701 5700 5700 5698 5696 5695 5697 5698 5696 5694 5694 5695 5695 5694 5694 5694 5694 5694 5694 5695 5695 5695 5696 5696 5696 5696 5696 5696 5697 5697 5697 5697 5698 5698 5699 5699 5700
5703 5703 5703 5703 5703 5703 5703 5703 5703 5703 5703 5702 5702 5702 5702 5702 5702 5701 5701 5700 5700 5699 5699 5699 5698 5698 5698 5697 5696 5695 5695 5694 5694 5693 5693 5693 5694 5694 5694 5694 5693 5690 5688 5689 5692 5692 5689 5688 5689 5689 5688 5688 5688 5688 5687 5687 5688 5689 5689 5690 5689 5690 5690 5690 5690 5690 5691 5691 5691 5692 5692 5692 5693 5694
5697 5697 5697 5697 5697 5697 5697 5696 5696 5696 5696 5696 5696 5696 5696 5697 5696 5695 5694 5693 5693 5693 5692 5692 5692 5691 5691 5690 5689 5689 5688 5687 5687 5686 5686 5685 5685 5686 5686 5686 5686 5684 5682 5682 5683 5685 5683 5681 5682 5683 5681 5681 5682 5682 5681 5680 5681 5681 5682 5682 5683 5683 5683 5684 5684 5684 5684 5684 5685 5685 5686 5686 5687 5688
5691 5691 5690 5690 5690 5690 5690 5690 5689 5689 5689 5689 5689 5689 5689 5690 5689 5688 5688 5687 5687 5686 5685 5685 5684 5684 5684 5683 5682 5681 5680 5680 5680 5680 5679 5678 5678 5678 5678 5678 5677 5676 5675 5674 5675 5677 5676 5673 5674 5675 5674 5673 5674 5674 5674 5674 5674 5674 5674 5674 5675 5675 5676 5676 5677 5677 5677 5678 5678 5679 5680 5680 5681 5681
5684 5684 5684 5684 5684 5684 5684 5683 5683 5682 5682 5682 5682 5681 5682 5682 5681 5681 5681 5680 5680 5679 5678 5677 5676 5676 5676 5675 5674 5673 5673 5672 5672 5672 5672 5671 5670 5670 5670 5669 5668 5667 5666 5665 5666 5668 5668 5666 5666 5667 5666 5665 5665 5665 5665 5666 5667 5666 5666 5666 5667 5667 5668 5668 5669 5670 5670 5670 5671 5672 5673 5674 5674 5675
5678 5678 5678 5677 5677 5677 5677 5677 5676 5676 5675 5675 5674 5674 5673 5673 5673 5673 5672 5672 5671 5670 5669 5669 5668 5667 5667 5666 5666 5665 5664 5664 5664 5663 5663 5662 5661 5662 5662 5662 5660 5659 5657 5655 5655 5657 5659 5658 5658 5658 5657 5657 5657 5657 5656 5657 5658 5658 5658 5658 5659 5659 5659 5660 5661 5661 5662 5663 5663 5664 5665 5667 5668 5668
5671 5672 5671 5671 5671 5671 5671 5670 5669 5669 5668 5667 5667 5666 5666 5665 5664 5664 5664 5663 5662 5662 5661 5660 5659 5659 5658 5657 5657 5656 5655 5655 5654 5654 5654 5652 5651 5652 5653 5653 5652 5651 5649 5647 5645 5646 5648 5648 5648 5649 5648 5648 5649 5649 5648 5648 5649 5650 5650 5650 5650 5650 5651 5651 5652 5653 5654 5654 5655 5656 5658 5659 5660 5660
5665 5665 5665 5665 5664 5664 5663 5663 5662 5661 5661 5660 5659 5658 5658 5657 5656 5656 5655 5654 5654 5653 5652 5651 5651 5650 5649 5649 5648 5647 5646 5645 5644 5643 5643 5642 5642 5642 5642 5642 5642 5642 5641 5638 5636 5637 5638 5638 5638 5639 5639 5639 5640 5639 5639 5639 5639 5640 5640 5641 5641 5642 5642 5642 5643 5644 5645 5646 5647 5648 5649 5650 5651 5652
5658 5658 5657 5657 5657 5656 5656 5655 5654 5653 5652 5651 5651 5650 5649 5649 5648 5647 5646 5646 5645 5644 5643 5642 5641 5641 5640 5639 5639 5637 5636 5635 5634 5633 5633 5632 5632 5632 5632 5631 5631 5632 5632 5629 5626 5628 5629 5628 5628 5628 5629 5630 5631 5630 5630 5631 5631 5630 5631 5631 5632 5633 5633 5633 5634 5635 5636 5637 5638 5639 5640 5641 5642 5643
5651 5650 5650 5649 5649 5649 5648 5647 5646 5645 5644 5643 5642 5642 5641 5640 5639 5638 5637 5637 5636 5635 5634 5634 5632 5631 5631 5630 5629 5628 5627 5626 5625 5624 5623 5623 5622 5622 5622 5621 5621 5621 5622 5619 5617 5618 5619 5619 5618 5618 5617 5619 5622 5622 5621 5621 5621 5621 5621 5621 5622 5623 5624 5625 5625 5625 5627 5628 5629 5630 5631 5632 5633 5634
5644 5643 5643 5642 5642 5642 5641 5640 5639 5638 5637 5636 5635 5634 5633 5631 5630 5630 5629 5628 5627 5626 5626 5625 5624 5623 5622 5621 5619 5618 5617 5616 5615 5615 5614 5613 5612 5612 5612 5611 5611 5612 5612 5609 5607 5608 5609 5609 5609 5608 5608 5608 5610 5612 5612 5612 5612 5612 5612 5611 5611 5613 5614 5615 5616 5617 5617 5619 5620 5621 5622 5623 5624 5625
5637 5637 5637 5636 5636 5635 5634 5633 5632 5631 5630 5629 5628 5626 5625 5624 5622 5621 5620 5619 5619 5618 5617 5616 5615 5614 5613 5611 5610 5609 5608 5607 5606 5606 5605 5604 5603 5602 5602 5601 5601 5602 5602 5599 5597 5597 5598 5599 5599 5598 5598 5599 5599 5601 5602 5603 5603 5603 5603 5602 5602 5602 5603 5605 5606 5607 5608 5609 5610 5611 5613 5614 5615 5616
5631 5631 5630 5630 5629 5628 5627 5627 5625 5624 5623 5622 5621 5619 5618 5617 5615 5614 5612 5611 5610 5609 5608 5607 5606 5605 5603 5602 5601 5600 5599 5598 5597 5597 5596 5595 5594 5593 5593 5592 5591 5591 5591 5590 5588 5587 5587 5588 5588 5588 5588 5588 5589 5590 5592 5593 5594 5594 5594 5594 5593 5593 5594 5595 5596 5597 5598 5600 5601 5602 5603 5605 5606 5608
5625 5624 5624 5623 5623 5622 5621 5620 5619 5618 5616 5615 5614 5613 5611 5610 5608 5607 5605 5604 5602 5601 5600 5599 5598 5597 5595 5594 5593 5592 5591 5590 5589 5588 5587 5586 5585 5584 5584 5583 5582 5581 5581 5580 5579 5577 5576 5577 5577 5577 5577 5578 5579 5581 5582 5583 5584 5585 5585 5585 5585 5584 5584 5585 5587 5588 5589 5590 5592 5593 5594 5595 5596 5598
5619 5618 5617 5617 5616 5615 5615 5614 5613 5612 5610 5609 5608 5607 5605 5604 5602 5600 5599 5597 5596 5594 5593 5592 5590 5589 5587 5586 5585 5583 5582 5582 5581 5579 5578 5578 5577 5576 5575 5575 5574 5573 5572 5570 5569 5568 5566 5566 5567 5567 5567 5568 5569 5570 5572 5573 5574 5575 5575 5576 5576 5576 5576 5576 5577 5579 5580 5581 5583 5584 5584 5585 5586 5587
5613 5612 5611 5611 5610 5609 5609 5608 5607 5606 5605 5603 5602 5601 5599 5597 5596 5594 5593 5591 5589 5588 5586 5585 5583 5581 5580 5578 5577 5575 5575 5574 5572 5571 5570 5570 5569 5567 5566 5566 5566 5565 5563 5561 5560 5558 5557 5556 5556 5556 5557 5558 5559 5560 5561 5562 5564 5565 5565 5566 5566 5566 5566 5566 5568 5569 5570 5572 5573 5574 5575 5575 5577 5578
5607 5606 5606 5605 5605 5604 5603 5602 5601 5600 5599 5598 5596 5594 5593 5591 5590 5588 5586 5585 5583 5581 5580 5578 5576 5574 5572 5571 5569 5568 5566 5565 5563 5562 5561 5561 5560 5558 5557 5557 5558 5557 5555 5552 5550 5548 5547 5546 5545 5545 5546 5547 5548 5549 5549 5550 5552 5554 5554 5555 5555 5556 5556 5556 5557 5558 5559 5561 5563 5564 5565 5567 5568 5569
5601 5601 5600 5600 5600 5599 5598 5597 5596 5595 5593 5592 5590 5588 5587 5585 5583 5582 5580 5578 5576 5574 5572 5570 5568 5567 5565 5563 5561 5559 5558 5557 5555 5553 5552 5551 5550 5549 5548 5548 5548 5547 5545 5543 5540 5538 5536 5535 5534 5534 5534 5535 5536 5537 5537 5538 5540 5541 5542 5543 5544 5545 5546 5546 5546 5547 5548 5551 5554 5555 5556 5558 5558 5559
5596 5596 5595 5595 5595 5594 5593 5592 5591 5589 5587 5586 5584 5582 5581 5579 5577 5575 5573 5571 5569 5567 5565 5563 5561 5558 5557 5555 5553 5551 5550 5548 5546 5544 5543 5541 5541 5540 5538 5538 5537 5536 5534 5533 5530 5527 5525 5524 5523 5523 5523 5523 5524 5525 5525 5527 5528 5529 5530 5532 5533 5534 5534 5535 5536 5538 5540 5542 5544 5546 5547 5548 5549 5550
5591 5590 5590 5590 5589 5589 5588 5587 5585 5584 5582 5580 5579 5577 5575 5573 5571 5569 5567 5565 5563 5560 5557 5555 5553 5551 5549 5547 5545 5543 5542 5540 5538 5535 5533 5532 5531 5530 5528 5527 5526 5524 5523 5522 5520 5518 5516 5515 5514 5514 5514 5513 5513 5513 5513 5515 5516 5517 5517 5519 5521 5523 5524 5525 5527 5530 5532 5534 5536 5537 5538 5539 5539 5541
5585 5585 5585 5585 5584 5583 5582 5581 5580 5578 5577 5575 5574 5572 5570 5568 5566 5564 5561 5559 5556 5553 5551 5548 5545 5543 5541 5539 5537 5535 5533 5532 5530 5527 5525 5523 5522 5521 5519 5518 5517 5515 5514 5513 5512 5510 5509 5508 5506 5505 5504 5503 5503 5503 5501 5501 5503 5505 5506 5508 5511 5513 5515 5517 5520 5522 5524 5526 5528 5529 5530 5530 5531 5533
5580 5580 5580 5579 5579 5578 5576 5575 5575 5573 5572 5571 5570 5568 5566 5564 5561 5559 5556 5553 5550 5547 5544 5541 5538 5536 5533 5531 5529 5527 5525 5523 5522 5519 5517 5516 5515 5513 5512 5510 5509 5508 5507 5506 5504 5503 5502 5501 5499 5498 5497 5496 5495 5494 5491 5490 5493 5495 5496 5499 5502 5504 5506 5509 5513 5515 5517 5518 5520 5521 5522 5523 5524 5526
5575 5575 5575 5574 5573 5573 5572 5571 5570 5570 5569 5568 5567 5565 5563 5560 5557 5554 5550 5547 5544 5540 5537 5534 5531 5529 5527 5524 5523 5521 5518 5517 5515 5514 5512 5511 5509 5508 5506 5505 5504 5503 5501 5500 5499 5498 5497 5496 5494 5493 5492 5490 5489 5487 5485 5484 5485 5488 5489 5491 5494 5497 5500 5503 5506 5508 5509 5511 5513 5515 5516 5517 5518 5520
5570 5570 5570 5569 5569 5568 5568 5568 5567 5567 5566 5565 5564 5562 5559 5556 5552 5549 5545 5541 5537 5534 5530 5527 5524 5522 5520 5518 5517 5515 5514 5512 5511 5510 5508 5507 5505 5504 5503 5501 5500 5499 5497 5496 5494 5493 5492 5491 5490 5489 5487 5485 5483 5482 5480 5479 5480 5482 5483 5484 5487 5491 5494 5496 5499 5501 5503 5505 5507 5508 5510 5511 5512 5514
5566 5565 5565 5565 5565 5565 5565 5565 5565 5564 5563 5562 5560 5558 5555 5551 5548 5544 5540 5535 5531 5527 5524 5521 5518 5517 5516 5514 5513 5512 5510 5509 5508 5506 5505 5504 5502 5501 5500 5498 5497 5495 5494 5492 5490 5488 5487 5486 5485 5484 5483 5481 5479 5477 5476 5476 5476 5477 5478 5480 5482 5485 5488 5490 5493 5495 5497 5499 5501 5502 5504 5505 5507 5508
5561 5561 5561 5562 5562 5562 5563 5563 5562 5562 5561 5559 5557 5554 5551 5548 5544 5540 5535 5530 5525 5521 5519 5517 5515 5514 5512 5511 5510 5508 5507 5506 5505 5504 5503 5501 5500 5498 5497 5495 5493 5491 5489 5487 5485 5483 5482 5481 5480 5479 5478 5477 5475 5474 5473 5473 5473 5474 5475 5477 5479 5481 5483 5485 5488 5490 5491 5493 5495 5496 5498 5499 5501 5502
5557 5558 5558 5559 5560 5560 5561 5561 5560 5559 5558 5556 5554 5551 5548 5544 5540 5535 5530 5524 5520 5518 5516 5514 5512 5511 5510 5509 5507 5506 5505 5504 5503 5502 5500 5498 5496 5494 5493 5491 5488 5486 5484 5482 5479 5478 5476 5475 5475 5474 5474 5473 5472 5471 5471 5470 5470 5471 5472 5473 5475 5477 5479 5481 5483 5485 5487 5489 5490 5491 5493 5494 5495 5497
5554 5555 5556 5557 5558 5558 5558 5558 5558 5556 5555 5553 5551 5549 5545 5540 5536 5531 5525 5520 5516 5514 5513 5511 5510 5509 5508 5507 5506 5505 5504 5503 5501 5499 5498 5496 5494 5491 5489 5487 5485 5482 5480 5477 5475 5473 5472 5471 5470 5470 5469 5469 5469 5469 5468 5468 5468 5469 5470 5471 5472 5474 5476 5478 5480 5481 5483 5484 5486 5487 5488 5490 5491 5492
5551 5552 5554 5555 5555 5556 5556 5556 5555 5554 5552 5551 5549 5546 5542 5537 5533 5527 5522 5517 5514 5512 5510 5509 5508 5507 5506 5505 5504 5504 5502 5501 5499 5497 5495 5493 5491 5489 5486 5483 5481 5478 5476 5473 5471 5469 5468 5467 5466 5466 5466 5465 5466 5466 5466 5466 5466 5467 5468 5469 5470 5472 5473 5475 5477 5478 5480 5481 5482 5484 5485 5487 5488 5489
5549 5550 5552 5553 5553 5554 5554 5553 5552 5551 5550 5548 5546 5543 5539 5535 5530 5525 5519 5514 5512 5510 5508 5507 5506 5505 5504 5504 5503 5502 5500 5499 5497 5495 5493 5491 5489 5487 5484 5481 5478 5475 5473 5471 5469 5467 5465 5463 5463 5462 5462 5462 5463 5463 5463 5464 5464 5465 5466 5467 5468 5470 5471 5473 5474 5476 5477 5479 5480 5481 5482 5484 5485 5486
5547 5549 5550 5551 5551 5551 5551 5551 5550 5549 5547 5545 5543 5540 5537 5533 5528 5523 5517 5513 5510 5508 5506 5505 5504 5504 5503 5502 5501 5500 5499 5497 5495 5494 5492 5490 5488 5485 5482 5480 5477 5474 5471 5469 5467 5465 5463 5461 5460 5460 5459 5460 5460 5460 5461 5462 5462 5463 5464 5466 5467 5468 5469 5471 5472 5473 5474 5476 5477 5478 5479 5480 5482 5483